• In Deutschland
  • Länderverzeichnis
  • Für 7 Tage
  • Wassertemperatur
  • Satellitenkarten
  • Wetterkarte
  • Widgets
  • user-avatar
    Anmelden

    Stündliche Wetter Herzogenaurach

    Heute, 21 Oktober, Samstag

    Zeit Temperatur Niederschläge Wind Luftdruck Luftfeuchtigkeit
    00:00 +10°C° 0 mm 2 m/S 733 mmHg 94%
    01:00 +11°C° 0 mm 1 m/S 732 mmHg 95%
    02:00 +11°C° 0 mm 1 m/S 732 mmHg 95%
    03:00 +11°C° 0 mm 1 m/S 732 mmHg 95%
    04:00 +11°C° 0 mm 1 m/S 732 mmHg 95%
    05:00 +11°C° 0 mm 1 m/S 732 mmHg 95%
    06:00 +11°C° 0 mm 1 m/S 732 mmHg 95%
    07:00 +10°C° 0 mm 1 m/S 732 mmHg 95%
    08:00 +12°C° 0 mm 1 m/S 732 mmHg 89%
    09:00 +14°C° 0 mm 2 m/S 732 mmHg 84%
    10:00 +16°C° 0 mm 3 m/S 732 mmHg 78%
    11:00 +17°C° 0 mm 3 m/S 732 mmHg 74%
    12:00 +18°C° 0 mm 3 m/S 732 mmHg 71%
    13:00 +19°C° 0 mm 4 m/S 732 mmHg 68%
    14:00 +19°C° 0 mm 3 m/S 732 mmHg 71%
    15:00 +18°C° 0 mm 2 m/S 731 mmHg 74%
    16:00 +18°C° 0 mm 2 m/S 731 mmHg 77%
    17:00 +17°C° 0,5 mm 2 m/S 731 mmHg 82%
    18:00 +16°C° 0,5 mm 1 m/S 731 mmHg 88%
    19:00 +14°C° 0,5 mm 1 m/S 731 mmHg 94%
    20:00 +14°C° 0,7 mm 2 m/S 731 mmHg 93%
    21:00 +13°C° 0,7 mm 3 m/S 731 mmHg 93%
    22:00 +12°C° 0,7 mm 4 m/S 732 mmHg 93%
    23:00 +11°C° 1,8 mm 4 m/S 732 mmHg 93%

    Morgen, 22 Oktober, Sonntag

    Zeit Temperatur Niederschläge Wind Luftdruck Luftfeuchtigkeit
    00:00 +11°C° 1,8 mm 3 m/S 732 mmHg 93%
    01:00 +10°C° 1,8 mm 3 m/S 732 mmHg 93%
    02:00 +10°C° 0,2 mm 3 m/S 732 mmHg 92%
    03:00 +10°C° 0,2 mm 3 m/S 733 mmHg 92%
    04:00 +9°C° 0,2 mm 3 m/S 733 mmHg 91%
    05:00 +9°C° 0,4 mm 3 m/S 733 mmHg 91%
    06:00 +9°C° 0,4 mm 3 m/S 733 mmHg 91%
    07:00 +8°C° 0,4 mm 3 m/S 733 mmHg 91%
    08:00 +8°C° 0,1 mm 4 m/S 733 mmHg 87%
    09:00 +8°C° 0,1 mm 4 m/S 733 mmHg 84%
    10:00 +9°C° 0,1 mm 5 m/S 733 mmHg 80%
    11:00 +10°C° 0,2 mm 4 m/S 733 mmHg 78%
    12:00 +10°C° 0,2 mm 4 m/S 732 mmHg 76%
    13:00 +10°C° 0,2 mm 4 m/S 732 mmHg 74%
    14:00 +10°C° 0,2 mm 4 m/S 732 mmHg 76%
    15:00 +10°C° 0,2 mm 4 m/S 732 mmHg 77%
    16:00 +10°C° 0,2 mm 3 m/S 732 mmHg 79%
    17:00 +9°C° 0,1 mm 3 m/S 732 mmHg 82%
    18:00 +8°C° 0,1 mm 3 m/S 732 mmHg 85%
    19:00 +8°C° 0,1 mm 3 m/S 732 mmHg 89%
    20:00 +8°C° 0,1 mm 3 m/S 733 mmHg 89%
    21:00 +7°C° 0,1 mm 4 m/S 733 mmHg 89%
    22:00 +6°C° 0,1 mm 4 m/S 733 mmHg 90%
    23:00 +6°C° 0 mm 4 m/S 733 mmHg 90%

    übermorgen, 23 Oktober, Montag

    Zeit Temperatur Niederschläge Wind Luftdruck Luftfeuchtigkeit
    00:00 +6°C° 0 mm 4 m/S 733 mmHg 90%
    01:00 +6°C° 0 mm 4 m/S 733 mmHg 91%
    02:00 +6°C° 0,1 mm 5 m/S 733 mmHg 90%
    03:00 +6°C° 0,1 mm 5 m/S 733 mmHg 89%
    04:00 +5°C° 0,1 mm 6 m/S 733 mmHg 89%
    05:00 +5°C° 0,5 mm 6 m/S 733 mmHg 89%
    06:00 +5°C° 0,5 mm 6 m/S 733 mmHg 89%
    07:00 +5°C° 0,5 mm 6 m/S 733 mmHg 89%
    08:00 +5°C° 1 mm 6 m/S 733 mmHg 89%
    09:00 +7°C° 1 mm 6 m/S 733 mmHg 89%
    10:00 +7°C° 1 mm 6 m/S 734 mmHg 89%
    11:00 +8°C° 0,3 mm 6 m/S 734 mmHg 86%
    12:00 +8°C° 0,3 mm 6 m/S 734 mmHg 84%
    13:00 +9°C° 0,3 mm 6 m/S 735 mmHg 81%
    14:00 +9°C° 0,1 mm 5 m/S 735 mmHg 82%
    15:00 +9°C° 0,1 mm 5 m/S 735 mmHg 82%
    16:00 +10°C° 0,1 mm 4 m/S 735 mmHg 83%
    17:00 +8°C° 0,1 mm 4 m/S 736 mmHg 85%
    18:00 +8°C° 0,1 mm 4 m/S 736 mmHg 87%
    19:00 +7°C° 0,1 mm 4 m/S 736 mmHg 89%
    20:00 +7°C° 0,2 mm 4 m/S 737 mmHg 90%
    21:00 +7°C° 0,2 mm 4 m/S 737 mmHg 92%
    22:00 +7°C° 0,2 mm 4 m/S 738 mmHg 93%
    23:00 +8°C° 0,1 mm 3 m/S 738 mmHg 93%

    24 Oktober, Dienstag

    Zeit Temperatur Niederschläge Wind Luftdruck Luftfeuchtigkeit
    00:00 +7°C° 0,1 mm 3 m/S 738 mmHg 94%
    01:00 +7°C° 0,1 mm 3 m/S 738 mmHg 95%
    02:00 +7°C° 0 mm 3 m/S 738 mmHg 95%
    03:00 +7°C° 0 mm 2 m/S 738 mmHg 96%
    04:00 +7°C° 0 mm 2 m/S 739 mmHg 96%
    05:00 +7°C° 0 mm 2 m/S 739 mmHg 96%
    06:00 +7°C° 0 mm 1 m/S 739 mmHg 96%
    07:00 +7°C° 0 mm 1 m/S 739 mmHg 97%
    08:00 +8°C° 0 mm 1 m/S 740 mmHg 93%
    09:00 +9°C° 0 mm 1 m/S 740 mmHg 90%
    10:00 +10°C° 0 mm 1 m/S 740 mmHg 86%
    11:00 +11°C° 0 mm 1 m/S 740 mmHg 82%
    12:00 +12°C° 0 mm 1 m/S 740 mmHg 78%
    13:00 +13°C° 0 mm 1 m/S 740 mmHg 74%
    14:00 +13°C° 0 mm 1 m/S 740 mmHg 75%
    15:00 +13°C° 0 mm 1 m/S 740 mmHg 76%
    16:00 +11°C° 0 mm 0 m/S 740 mmHg 77%
    17:00 +11°C° 0 mm 0 m/S 740 mmHg 78%
    18:00 +11°C° 0 mm 1 m/S 740 mmHg 80%
    19:00 +10°C° 0 mm 1 m/S 741 mmHg 82%
    20:00 +10°C° 0 mm 1 m/S 741 mmHg 84%
    21:00 +10°C° 0 mm 1 m/S 741 mmHg 85%
    22:00 +9°C° 0 mm 1 m/S 741 mmHg 87%
    23:00 +9°C° 0 mm 1 m/S 741 mmHg 88%

    25 Oktober, Mittwoch

    Zeit Temperatur Niederschläge Wind Luftdruck Luftfeuchtigkeit
    00:00 +8°C° 0 mm 1 m/S 741 mmHg 90%
    01:00 +8°C° 0 mm 1 m/S 741 mmHg 92%
    02:00 +7°C° 0 mm 1 m/S 741 mmHg 92%
    03:00 +7°C° 0 mm 1 m/S 741 mmHg 92%
    04:00 +7°C° 0 mm 1 m/S 741 mmHg 92%
    05:00 +7°C° 0 mm 1 m/S 741 mmHg 92%
    06:00 +7°C° 0 mm 1 m/S 741 mmHg 92%
    07:00 +7°C° 0 mm 1 m/S 741 mmHg 92%
    08:00 +9°C° 0 mm 1 m/S 741 mmHg 87%
    09:00 +10°C° 0 mm 1 m/S 741 mmHg 82%
    10:00 +12°C° 0 mm 1 m/S 741 mmHg 77%
    11:00 +13°C° 0 mm 1 m/S 741 mmHg 74%
    12:00 +14°C° 0 mm 1 m/S 741 mmHg 70%
    13:00 +16°C° 0 mm 1 m/S 741 mmHg 67%
    14:00 +15°C° 0 mm 1 m/S 740 mmHg 70%
    15:00 +15°C° 0 mm 1 m/S 740 mmHg 72%
    16:00 +15°C° 0 mm 1 m/S 740 mmHg 75%
    17:00 +14°C° 0 mm 1 m/S 740 mmHg 79%
    18:00 +12°C° 0 mm 1 m/S 741 mmHg 83%
    19:00 +11°C° 0 mm 1 m/S 741 mmHg 87%
    20:00 +11°C° 0 mm 1 m/S 741 mmHg 86%
    21:00 +11°C° 0 mm 1 m/S 741 mmHg 86%
    22:00 +11°C° 0 mm 1 m/S 741 mmHg 85%
    23:00 +10°C° 0 mm 1 m/S 741 mmHg 86%

    26 Oktober, Donnerstag

    Zeit Temperatur Niederschläge Wind Luftdruck Luftfeuchtigkeit
    00:00 +10°C° 0 mm 1 m/S 741 mmHg 86%
    01:00 +10°C° 0 mm 1 m/S 741 mmHg 86%
    02:00 +9°C° 0 mm 1 m/S 741 mmHg 86%
    03:00 +9°C° 0 mm 1 m/S 741 mmHg 86%
    04:00 +9°C° 0 mm 1 m/S 741 mmHg 86%
    05:00 +9°C° 0 mm 1 m/S 741 mmHg 85%
    06:00 +8°C° 0 mm 1 m/S 741 mmHg 85%
    07:00 +8°C° 0 mm 1 m/S 741 mmHg 85%
    08:00 +10°C° 0 mm 1 m/S 741 mmHg 78%
    09:00 +12°C° 0 mm 1 m/S 741 mmHg 72%
    10:00 +13°C° 0 mm 1 m/S 741 mmHg 65%
    11:00 +15°C° 0 mm 1 m/S 741 mmHg 62%
    12:00 +16°C° 0 mm 1 m/S 741 mmHg 58%
    13:00 +19°C° 0 mm 1 m/S 741 mmHg 54%
    14:00 +18°C° 0 mm 1 m/S 740 mmHg 58%
    15:00 +18°C° 0 mm 1 m/S 740 mmHg 62%
    16:00 +16°C° 0 mm 1 m/S 739 mmHg 66%
    17:00 +15°C° 0 mm 1 m/S 739 mmHg 69%
    18:00 +14°C° 0 mm 1 m/S 739 mmHg 73%
    19:00 +12°C° 0 mm 1 m/S 739 mmHg 76%
    20:00 +12°C° 0 mm 1 m/S 739 mmHg 76%
    21:00 +12°C° 0 mm 2 m/S 739 mmHg 76%
    22:00 +12°C° 0 mm 2 m/S 739 mmHg 76%
    23:00 +10°C° 0 mm 2 m/S 738 mmHg 77%
    Mehr zeigen